Forecast Directory
U.S. Alerts
El Dorado Weather Logo
U.S. Radar Loop Conditions Map

U.S. Color Satellite North America Color Infrared Animated Satellite Loop

Interactive Wx Map Live U.S. Google Map Radar Thumbnail Image

US Precipitation 1 day, 24 hour precipitation map

US Temperatures US Conditions Map

US Climate Data US Conditions Map


NOAA NWS Hourly Roundups by Site
Regional Weather Roundup for Sacramento, CA
Select Site:  

000
ASUS46 KSTO 182215
RWRCA

NORTHERN AND CENTRAL CA REGIONAL WEATHER ROUNDUP
NATIONAL WEATHER SERVICE SACRAMENTO CA
200 PM PST SAT JAN 18 2020

NOTE: FAIR INDICATES FEW OR NO CLOUDS BELOW 12,000 FEET WITH NO
SIGNIFICANT WEATHER AND/OR OBSTRUCTIONS TO VISIBILITY.

CAZ001-003-182300-
NORTHWEST AREA

CITY           SKY/WX    TMP DP  RH WIND       PRES   REMARKS
CRESCENT CITY  CLOUDY    51  44  77 S18       30.26R
UKIAH          PTSUNNY   51  37  58 CALM      30.31F
$$

CAZ006-505>513-182300-
BAY AREA

CITY           SKY/WX    TMP DP  RH WIND       PRES   REMARKS
SANTA ROSA     MOSUNNY   54  40  59 CALM      30.29F
SAN RAFAEL     N/A       MM  MM  MM MISG
NAPA           MOSUNNY   57  42  57 SE9       30.29F
CONCORD        MOSUNNY   53  41  63 NE8       30.32F
OAKLAND CITY   N/A       53  MM  MM MISG
OAKLAND        PTSUNNY   53  42  66 W7        30.30F
SAN FRAN CITY  N/A       53  MM  57 MISG
SAN FRAN ARPT  PTSUNNY   54  41  61 E3        30.29F
LIVERMORE      MOSUNNY   50  41  71 NE14      30.29F
HAYWARD        SUNNY     56  40  55 E12       30.28F
SAN JOSE ARPT  PTSUNNY   53  37  54 CALM      30.28F
$$
CAZ034-037-514>518-182300-
CENTRAL COAST

CITY           SKY/WX    TMP DP  RH WIND       PRES   REMARKS
WATSONVILLE    MOSUNNY   59  38  45 E8        30.26F
SALINAS        CLOUDY    54  41  61 E5        30.25F
MONTEREY       CLOUDY    56  40  55 NE8       30.24F
SAN LUIS OBISP MOSUNNY   61  37  41 CALM      30.19F
SANTA MARIA    MOSUNNY   61  43  51 NW3       30.19F
$$
CAZ015-016-182300-
NORTHERN SACRAMENTO VALLEY

CITY           SKY/WX    TMP DP  RH WIND       PRES   REMARKS
REDDING        MOSUNNY   54  33  45 N6        30.34F
RED BLUFF      MOSUNNY   54  34  46 N10       30.35F
OROVILLE       PTSUNNY   54  37  52 W8        30.34F
$$
CAZ016>018-182300-
SOUTHERN SACRAMENTO VALLEY

CITY           SKY/WX    TMP DP  RH WIND       PRES   REMARKS
AUBURN         SUNNY     50  36  57 W6        30.29F
BEALE AFB      MOSUNNY   52  37  55 N12       30.31F
LINCOLN        FAIR      52  36  54 NW12      30.31F
MARYSVILLE     MOSUNNY   53  38  56 NW13      30.33F
SAC INTL ARPT  PTSUNNY   52  40  63 N14       30.32F
MATHER AIRPORT NOT AVBL
DOWNTOWN SAC   N/A       53  MM  MM MISG
SAC EXEC ARPT  MOSUNNY   53  42  66 N13       30.32F
VACAVILLE      MOSUNNY   55  39  54 N12       30.34F
TRAVIS AFB     MOSUNNY   55  39  55 N17       30.32F
$$
CAZ019>021-182300-
SAN JOAQUIN VALLEY

CITY           SKY/WX    TMP DP  RH WIND       PRES   REMARKS
STOCKTON       CLOUDY    47  43  86 CALM      30.32F FOG
MODESTO        CLOUDY    45  41  86 N6        30.32F FOG
MERCED         CLOUDY    45  42  89 NW5       30.32F FOG
LEMOORE        CLOUDY    49  44  83 NW7       30.32F FOG
FRESNO         PTSUNNY   49  41  74 NW6       30.31F
HANFORD        MOSUNNY   47  44  90 NW6       30.31F FOG
PORTERVILLE    CLOUDY    46  42  86 NW6       30.32F
BAKERSFIELD    CLOUDY    45  40  82 W8        30.30F HAZE
$$
CAZ011-012-071-182300-
NORTHERN MOUNTAINS

CITY           SKY/WX    TMP DP  RH WIND       PRES   REMARKS
YREKA          CLOUDY    42  28  57 NW5       30.31F
MOUNT SHASTA   PTSUNNY   38  31  76 CALM      30.30F
ALTURAS        CLOUDY    45  18  34 CALM      30.29F
$$
CAZ011-012-071-182300-
SIERRA NEVADA MTNS

CITY           SKY/WX    TMP DP  RH WIND       PRES   REMARKS
BLUE CANYON    SUNNY     49  13  23 CALM      30.30F
TRUCKEE        SUNNY     37  27  65 CALM      30.31F
TAHOE VLY ARPT SUNNY     39  28  64 NE6       30.30F WCI  35
MAMMOTH LAKES  PTSUNNY   36  23  60 CALM      30.33F
$$


 

View Past Reports for Sacramento, CA.

Products Courtesy of NOAA-NWS
NWS Information Parsing Script by Ken True at Saratoga Weather - Script by SE Lincoln Weather.



Contact Us | Mobile
Never base any life decisions on weather information from this site or anywhere over the Internet.
Site is dedicated to our Lord & Savior Jesus Christ | Random Jesus Quotes

Copyright © 2020 El Dorado Weather, Inc. | Site Designed By:  El Dorado Weather